Total_Precipitation_Accumulation
0.03 0.03 0.04 0.07 0.21 0.42 0.59 0.48 0.44 0.45 0.49 0.42 0.40 0.40 0.51 0.67 0.93 1.70 1.05 0.57 0.36 0.28 0.32 0.30 0.40 0.40 0.41 0.43 0.47 0.53 0.65 0.65 0.70 0.70 0.67 0.63 0.67 0.66 0.68 0.77 0.89 1.10 1.29 1.38 1.46 1.54 1.73 1.88 1.83
0.03 0.04 0.07 0.12 0.31 0.54 0.64 0.47 0.48 0.45 0.43 0.42 0.41 0.41 0.44 0.55 0.45 0.54 0.47 0.46 0.38 0.30 0.33 0.34 0.42 0.46 0.42 0.44 0.50 0.59 0.69 0.72 0.84 0.82 0.67 0.65 0.66 0.69 0.74 0.80 0.91 1.14 1.38 1.53 1.53 1.51 1.59 1.62 1.63
0.03 0.04 0.08 0.20 0.38 0.47 0.62 0.50 0.54 0.49 0.42 0.42 0.48 0.52 0.58 0.69 0.62 0.60 0.52 0.47 0.44 0.37 0.38 0.44 0.50 0.53 0.53 0.55 0.58 0.63 0.73 0.80 0.88 0.76 0.71 0.74 0.74 0.73 0.78 0.83 0.89 1.05 1.37 1.54 1.48 1.40 1.34 1.38 1.45
0.03 0.06 0.11 0.25 0.36 0.32 0.48 0.53 0.53 0.56 0.49 0.46 0.51 0.67 0.68 0.65 0.62 0.62 0.57 0.57 0.49 0.45 0.41 0.40 0.47 0.51 0.57 0.56 0.57 0.69 0.72 0.79 0.85 0.82 0.83 0.85 0.87 0.87 0.84 0.92 1.03 1.08 1.31 1.53 1.45 1.38 1.36 1.37 1.44
0.04 0.08 0.17 0.30 0.31 0.26 0.36 0.45 0.59 0.63 0.60 0.54 0.60 0.89 1.11 0.96 0.85 0.78 0.62 0.58 0.61 0.53 0.47 0.39 0.44 0.52 0.57 0.62 0.64 0.80 0.85 0.90 0.95 0.99 0.96 0.94 0.96 0.98 0.94 1.00 1.09 1.20 1.27 1.39 1.37 1.37 1.38 1.30 1.41
0.03 0.08 0.22 0.32 0.29 0.25 0.34 0.45 0.53 0.58 0.53 0.51 0.67 1.11 1.65 1.37 1.07 1.12 1.00 0.73 0.70 0.59 0.52 0.48 0.49 0.64 0.76 0.79 0.79 0.91 0.92 0.99 1.04 1.11 1.08 1.00 0.95 0.93 0.93 1.01 1.07 1.21 1.34 1.32 1.22 1.21 1.25 1.30 1.41
0.04 0.11 0.22 0.31 0.39 0.36 0.39 0.44 0.53 0.54 0.56 0.65 0.91 1.39 1.80 1.59 1.28 1.30 1.25 0.97 0.86 0.72 0.61 0.57 0.56 0.76 0.99 1.03 0.96 0.94 0.92 1.01 1.11 1.24 1.28 1.13 1.00 0.93 0.97 1.03 1.08 1.19 1.26 1.15 1.07 1.06 1.09 1.18 1.33
0.03 0.08 0.17 0.24 0.45 0.46 0.42 0.45 0.49 0.48 0.59 0.78 1.05 1.40 1.72 1.64 1.38 1.23 1.19 1.15 1.10 1.06 0.87 0.77 0.79 0.90 1.01 1.03 1.07 1.03 1.01 1.11 1.22 1.30 1.33 1.26 1.16 1.08 1.10 1.07 1.17 1.21 1.25 1.18 1.15 1.12 1.12 1.13 1.21
0.03 0.09 0.16 0.26 0.44 0.46 0.44 0.43 0.41 0.42 0.51 0.78 0.93 0.97 1.30 1.41 1.31 1.35 1.33 1.25 1.24 1.23 1.30 1.22 1.16 1.16 1.17 1.14 1.14 1.23 1.22 1.26 1.29 1.34 1.31 1.27 1.29 1.37 1.36 1.21 1.30 1.37 1.45 1.47 1.37 1.31 1.29 1.24 1.26
0.06 0.14 0.18 0.20 0.26 0.33 0.40 0.44 0.39 0.45 0.52 0.77 1.11 1.02 1.05 1.25 1.42 1.55 1.59 1.49 1.47 1.50 1.61 1.64 1.63 1.61 1.58 1.50 1.67 1.74 1.53 1.45 1.41 1.54 1.39 1.38 1.69 1.78 1.56 1.67 1.76 1.87 1.85 1.78 1.67 1.54 1.45 1.36 1.30
0.08 0.13 0.18 0.23 0.20 0.26 0.33 0.39 0.36 0.51 0.70 0.79 1.13 1.46 1.36 1.48 1.77 2.04 1.90 1.92 1.99 1.92 1.71 1.65 1.92 2.04 2.11 2.25 2.14 2.13 2.09 2.03 1.95 2.06 1.92 1.93 2.12 2.05 2.03 2.07 2.01 1.97 1.99 1.93 2.02 1.80 1.45 1.35 1.52
0.10 0.13 0.18 0.20 0.20 0.19 0.23 0.35 0.41 0.55 0.87 0.99 1.25 1.52 1.88 1.89 2.08 2.17 2.25 2.29 2.26 2.28 2.10 1.87 1.94 2.01 2.19 2.41 2.42 2.39 2.29 2.22 2.17 2.28 2.11 2.27 2.48 2.56 2.53 2.58 2.36 2.31 2.26 2.39 2.41 2.24 1.91 1.68 1.68
0.13 0.13 0.14 0.18 0.15 0.14 0.25 0.37 0.38 0.48 0.63 0.85 1.10 1.31 1.71 1.80 1.90 2.22 2.53 2.84 2.85 2.67 2.53 2.35 2.13 2.07 2.25 2.58 2.76 2.72 2.75 2.60 2.66 2.79 2.58 2.55 2.60 2.65 2.96 2.97 3.16 2.78 2.72 2.87 2.84 2.59 2.46 2.22 2.03
0.12 0.11 0.11 0.15 0.14 0.16 0.25 0.31 0.37 0.41 0.53 0.64 0.76 0.99 1.32 1.56 1.84 2.44 2.88 3.19 3.49 3.31 2.96 2.67 2.51 2.36 2.36 2.52 2.87 3.00 2.85 2.89 2.93 3.06 2.97 2.92 2.96 3.06 3.40 3.53 3.57 3.34 3.39 3.60 3.63 3.36 3.11 2.83 2.74
0.11 0.12 0.13 0.13 0.16 0.14 0.19 0.34 0.40 0.46 0.50 0.60 0.68 0.88 1.27 1.72 1.98 2.68 3.27 3.56 3.82 3.55 3.38 3.09 2.96 2.96 2.75 2.70 3.01 3.13 3.05 3.01 3.08 3.27 3.34 3.23 3.31 3.62 3.72 4.06 4.04 3.84 3.84 3.90 3.87 4.06 3.98 3.45 3.14
0.13 0.16 0.21 0.17 0.15 0.12 0.17 0.40 0.47 0.49 0.56 0.66 0.77 0.97 1.30 1.76 2.06 2.41 2.85 3.23 3.69 3.78 3.56 3.39 3.00 2.98 3.19 3.22 3.51 3.46 3.54 3.70 3.67 3.71 3.89 3.84 3.87 3.98 4.01 4.06 4.16 4.10 4.06 4.38 4.55 4.46 4.37 4.12 3.76
0.14 0.16 0.18 0.20 0.16 0.15 0.14 0.32 0.49 0.49 0.51 0.68 0.81 1.16 1.59 1.73 1.99 2.12 2.49 2.77 3.16 3.24 3.37 3.45 3.32 3.25 3.27 3.48 3.92 4.07 4.30 4.48 4.64 4.69 4.90 4.79 4.56 4.47 4.54 4.52 4.67 4.52 4.59 4.60 4.45 4.87 4.85 4.70 4.25
0.09 0.12 0.13 0.19 0.17 0.15 0.16 0.26 0.51 0.62 0.63 0.77 0.88 1.09 1.45 1.58 2.00 2.24 2.39 2.44 2.94 3.26 3.39 3.47 3.63 3.81 3.77 3.83 4.13 4.61 4.86 4.99 5.33 5.38 5.39 5.45 5.42 5.28 5.30 5.26 5.29 5.16 5.02 4.95 4.93 5.02 4.79 4.62 4.33
0.06 0.10 0.12 0.14 0.14 0.15 0.23 0.38 0.55 0.70 0.74 0.95 1.15 1.24 1.30 1.49 2.00 2.44 2.57 2.67 3.06 3.38 3.56 3.48 3.68 4.05 4.33 4.69 4.69 4.94 5.45 5.80 5.91 5.96 5.93 5.84 5.76 5.78 5.66 5.50 5.64 5.49 5.23 5.02 4.99 4.95 4.82 4.46 4.41
0.05 0.08 0.11 0.15 0.16 0.17 0.31 0.51 0.56 0.69 0.82 1.13 1.34 1.34 1.31 1.50 1.85 2.30 2.52 2.89 3.24 3.38 3.61 3.71 3.85 4.34 4.81 5.33 5.87 6.26 6.72 6.77 6.90 6.81 6.68 6.33 6.17 6.09 5.90 5.94 5.77 5.60 5.49 5.21 5.00 4.95 4.84 4.46 4.51
0.05 0.07 0.10 0.13 0.18 0.23 0.36 0.65 0.74 0.85 1.00 1.22 1.34 1.28 1.35 1.58 1.91 2.19 2.51 2.91 3.26 3.43 3.66 3.80 4.12 4.73 5.56 6.14 6.65 7.20 7.55 7.28 7.06 6.73 6.58 6.47 6.42 6.35 6.25 6.24 5.97 5.76 5.51 5.17 4.89 4.76 4.68 4.55 4.54
0.07 0.08 0.08 0.11 0.20 0.33 0.37 0.74 1.06 1.19 1.32 1.30 1.32 1.44 1.59 1.71 1.88 2.16 2.46 2.78 3.10 3.46 3.59 3.79 4.43 5.10 5.73 6.38 7.01 7.56 7.81 7.80 7.60 7.03 6.53 6.15 5.93 5.70 5.63 5.68 5.57 5.39 5.08 4.84 4.51 4.40 4.36 4.51 4.32
0.08 0.09 0.10 0.14 0.20 0.32 0.38 0.71 1.30 1.59 1.67 1.65 1.69 1.75 1.74 1.73 1.86 2.06 2.32 2.58 2.75 3.13 3.53 3.83 4.50 5.25 5.89 6.65 7.38 7.76 7.93 7.90 7.53 6.75 5.98 5.46 5.16 4.90 4.71 4.77 4.69 4.53 4.33 4.17 4.12 4.18 4.08 4.02 3.85
0.07 0.11 0.16 0.21 0.29 0.44 0.43 0.71 1.43 1.85 2.01 2.06 1.99 2.00 1.89 1.79 1.75 1.82 2.09 2.26 2.52 2.88 3.32 3.83 4.19 4.86 5.67 6.27 6.78 6.93 7.06 7.00 6.57 6.14 5.65 5.28 4.80 4.34 3.99 3.90 3.84 3.65 3.49 3.50 3.55 3.65 3.61 3.65 3.66
0.09 0.19 0.40 0.56 0.61 0.56 0.44 0.74 1.45 1.76 1.72 1.78 1.82 1.86 1.84 1.67 1.68 1.91 2.17 2.14 2.42 2.75 3.19 3.69 4.11 4.55 5.14 5.71 6.14 6.33 6.48 6.41 5.92 5.46 5.03 4.62 4.11 3.72 3.42 3.24 3.20 3.08 3.01 3.02 3.19 3.31 3.25 3.22 3.28
0.08 0.18 0.46 0.70 0.73 0.74 0.71 1.13 1.68 1.71 1.57 1.46 1.52 1.63 1.74 1.75 1.75 1.84 1.95 2.04 2.36 2.63 2.94 3.36 3.71 4.12 4.37 4.65 5.10 5.35 5.53 5.39 5.03 4.56 4.05 3.74 3.41 3.08 2.91 2.81 2.75 2.67 2.57 2.53 2.75 2.87 2.93 2.95 3.01
0.12 0.17 0.26 0.36 0.44 0.75 1.15 1.49 1.88 1.85 1.77 1.61 1.51 1.55 1.65 1.63 1.65 1.78 1.92 2.06 2.26 2.61 3.08 3.29 3.32 3.52 3.76 4.06 4.26 4.33 4.41 4.31 4.08 3.77 3.44 3.13 2.82 2.53 2.41 2.37 2.39 2.36 2.32 2.36 2.55 2.60 2.54 2.62 2.64
0.11 0.15 0.22 0.37 0.70 1.00 1.31 1.89 2.28 2.38 2.36 2.20 1.80 1.70 1.61 1.62 1.64 1.72 1.84 2.09 2.17 2.20 2.59 2.95 3.01 3.10 3.20 3.35 3.43 3.37 3.48 3.39 3.33 3.16 2.91 2.65 2.46 2.23 2.17 2.13 2.15 2.18 2.14 2.15 2.28 2.37 2.42 2.41 2.36
0.17 0.19 0.25 0.39 0.54 0.99 1.46 2.14 2.35 2.65 2.76 2.64 2.24 2.10 2.03 1.94 1.82 1.80 1.79 1.86 2.02 2.08 2.24 2.49 2.73 2.77 2.84 3.01 3.03 2.93 3.03 3.01 3.01 2.88 2.68 2.55 2.51 2.38 2.20 2.10 2.16 2.16 2.10 2.08 2.10 2.03 2.12 2.21 2.26
0.17 0.22 0.33 0.61 0.68 0.76 1.32 2.35 2.62 2.76 2.68 2.42 2.28 2.19 2.03 1.89 1.74 1.70 1.64 1.63 1.72 1.93 2.18 2.34 2.46 2.47 2.56 2.70 2.83 2.89 2.93 2.83 2.73 2.55 2.44 2.35 2.24 2.10 2.06 2.05 2.10 2.08 2.00 2.00 1.93 1.81 1.88 1.99 2.06